AFL081 ULMM-UUYH

Flight info

Callsign AFL081
Flight time N/A
Altitude 35000
Route LOPRA2P LOPRA T822 SOTIS P35 UTUKA UTUKA3N
Aircraft A321/M-SDE3FGHIRWY/LB1

Departure

Time 2026-04-27 15:51
Airport Emperor Nicholas II Murmansk Airport (ULMM)

Arrival

Time N/A
Airport Ukhta Airport (UUYH)
Time Latitude Longitude Altitude Speed Heading
2026-04-27 15:35 68.78353 32.75511 254 ft 0 kts 325°
2026-04-27 15:47 68.78365 32.75490 254 ft 9 kts 325°
2026-04-27 15:47 68.78367 32.75345 254 ft 6 kts 253°
2026-04-27 15:47 68.78355 32.75237 254 ft 5 kts 244°
2026-04-27 15:47 68.78340 32.75152 254 ft 7 kts 244°
2026-04-27 15:48 68.78281 32.74991 256 ft 15 kts 188°
2026-04-27 15:48 68.78180 32.75118 253 ft 16 kts 144°
2026-04-27 15:48 68.78086 32.75298 252 ft 16 kts 146°
2026-04-27 15:49 68.77827 32.75768 253 ft 29 kts 146°
2026-04-27 15:49 68.77638 32.76120 252 ft 36 kts 146°
2026-04-27 15:49 68.77457 32.76464 253 ft 21 kts 132°
2026-04-27 15:49 68.77443 32.76842 253 ft 19 kts 86°
2026-04-27 15:50 68.77407 32.77101 254 ft 14 kts 147°
2026-04-27 15:50 68.77322 32.77109 254 ft 13 kts 218°
2026-04-27 15:50 68.77287 32.76810 252 ft 21 kts 294°
2026-04-27 15:50 68.77517 32.76350 254 ft 79 kts 326°
2026-04-27 15:51 68.78197 32.75082 261 ft 152 kts 326°
2026-04-27 15:51 68.79083 32.73473 1095 ft 151 kts 327°
2026-04-27 15:51 68.79975 32.71847 1943 ft 159 kts 328°
2026-04-27 15:51 68.80940 32.70044 2118 ft 177 kts 328°
2026-04-27 15:52 68.82021 32.68015 2254 ft 199 kts 328°
2026-04-27 15:52 68.83201 32.65792 2887 ft 205 kts 329°
2026-04-27 15:52 68.84376 32.63567 3738 ft 205 kts 330°
2026-04-27 15:52 68.85548 32.61361 4513 ft 207 kts 330°
2026-04-27 15:53 68.86747 32.59114 5264 ft 211 kts 330°
2026-04-27 15:53 68.87801 32.56213 5955 ft 226 kts 302°
2026-04-27 15:53 68.88059 32.51651 6404 ft 261 kts 265°
2026-04-27 15:53 68.87326 32.46812 6951 ft 283 kts 242°
2026-04-27 15:54 68.86139 32.42376 7700 ft 289 kts 234°
2026-04-27 15:54 68.84770 32.38267 8454 ft 295 kts 220°
2026-04-27 15:54 68.82867 32.36045 9213 ft 302 kts 186°
2026-04-27 15:54 68.80828 32.36812 9945 ft 302 kts 154°
2026-04-27 15:55 68.78998 32.39713 10535 ft 306 kts 144°
2026-04-27 15:55 68.77795 32.41911 10992 ft 308 kts 143°
2026-04-27 15:55 68.75446 32.46413 11927 ft 311 kts 142°
2026-04-27 15:55 68.73667 32.49903 12513 ft 319 kts 139°
2026-04-27 15:56 68.72185 32.54578 12651 ft 333 kts 117°
2026-04-27 15:56 68.71005 32.60262 12795 ft 352 kts 116°
2026-04-27 15:56 68.69795 32.66211 12967 ft 369 kts 116°
2026-04-27 15:56 68.68511 32.72514 13493 ft 376 kts 116°
2026-04-27 15:57 68.67052 32.78426 14083 ft 382 kts 124°
2026-04-27 15:57 68.65412 32.84198 14678 ft 384 kts 125°
2026-04-27 15:57 68.63754 32.89994 15257 ft 387 kts 126°
2026-04-27 15:57 68.62073 32.95811 15801 ft 390 kts 126°
2026-04-27 15:58 68.60082 33.00953 16345 ft 399 kts 143°
2026-04-27 15:58 68.57543 33.04130 16882 ft 407 kts 163°
2026-04-27 15:58 68.54713 33.04938 17408 ft 414 kts 182°
2026-04-27 15:58 68.51921 33.03283 17911 ft 419 kts 201°
2026-04-27 15:59 68.49405 32.99276 18382 ft 422 kts 221°
2026-04-27 15:59 68.47465 32.93308 18847 ft 421 kts 240°
2026-04-27 15:59 68.46305 32.86011 19324 ft 419 kts 258°
2026-04-27 15:59 68.46040 32.78188 19758 ft 416 kts 277°
2026-04-27 16:00 68.46688 32.70585 20185 ft 412 kts 296°
2026-04-27 16:00 68.47587 32.66065 20481 ft 409 kts 308°
2026-04-27 16:00 68.50318 32.59120 21048 ft 405 kts 332°
2026-04-27 16:00 68.52938 32.56358 21484 ft 403 kts 351°
2026-04-27 16:01 68.55735 32.56061 21895 ft 403 kts
2026-04-27 16:01 68.58387 32.58222 22266 ft 404 kts 27°
2026-04-27 16:01 68.60674 32.62673 22665 ft 406 kts 45°
2026-04-27 16:01 68.62323 32.68959 23110 ft 409 kts 63°
2026-04-27 16:02 68.63171 32.76445 23464 ft 415 kts 82°
2026-04-27 16:02 68.63104 32.84393 23829 ft 420 kts 99°
2026-04-27 16:02 68.62127 32.91995 24134 ft 428 kts 117°
2026-04-27 16:02 68.60453 32.98795 24413 ft 433 kts 123°
2026-04-27 16:03 68.58649 33.05309 24717 ft 436 kts 124°
2026-04-27 16:03 68.56790 33.11915 25025 ft 439 kts 126°
2026-04-27 16:03 68.54929 33.18564 25324 ft 441 kts 124°
2026-04-27 16:03 68.53060 33.25303 25590 ft 444 kts 124°
2026-04-27 16:04 68.51181 33.32039 25849 ft 447 kts 124°
2026-04-27 16:04 68.49300 33.38708 26124 ft 450 kts 124°
2026-04-27 16:04 68.47394 33.45528 26390 ft 452 kts 126°
2026-04-27 16:04 68.45470 33.52363 26666 ft 455 kts 126°
2026-04-27 16:05 68.43509 33.59180 26929 ft 458 kts 127°
2026-04-27 16:05 68.41536 33.65893 27177 ft 462 kts 128°
2026-04-27 16:05 68.39500 33.72694 27442 ft 464 kts 127°
2026-04-27 16:05 68.37440 33.79486 27812 ft 464 kts 129°
2026-04-27 16:06 68.35386 33.86219 28149 ft 464 kts 129°
2026-04-27 16:06 68.33321 33.92981 28470 ft 465 kts 129°
2026-04-27 16:06 68.31289 33.99648 28818 ft 465 kts 129°
2026-04-27 16:06 68.29234 34.06399 29174 ft 464 kts 129°